Concordia, KS

9:09 AM CDT on October 23, 2019 (GMT -0500)
Blosser Municipal

Weather History for KCNK - August, 2019

Change the Weather History Date:

Thursday, August 1, 2019

  Actual Average Record
Temperature  
Mean Temperature 78 °F 79 °F  
Max Temperature 86 °F 90 °F 106 °F (1991)
Min Temperature 70 °F 67 °F 50 °F (1898)
Degree Days  
Heating Degree Days 0 0  
Month to date heating degree days 0 0  
Since 1 June heating degree days 0 13  
Since 1 July heating degree days 0 0  
Cooling Degree Days 13 14  
Month to date cooling degree days 13 14  
Year to date cooling degree days 918 804  
Since 1 June cooling degree days 818 715  
Growing Degree Days 28 (Base 50)    
Moisture  
Dew Point 68 °F    
Average Humidity 74    
Maximum Humidity 90    
Minimum Humidity 57    
Precipitation  
Precipitation 0.05 in 0.11 in 2.24 in (1903)
Month to date precipitation 0.05 0.11  
Year to date precipitation 22.28 18.07  
Snow  
Snow 0.00 in 0.00 in T in (1954)
Month to date snowfall 0.0 0.0  
Year to date snowfall 32.3 13.7  
Since 1 July snowfall 0.0 0.0  
Snow Depth 0.00 in    
Sea Level Pressure  
Sea Level Pressure 29.99 in    
Wind  
Wind Speed 13 mph (ESE)    
Max Wind Speed 25 mph    
Max Gust Speed 35 mph    
Visibility 10 miles    
Events Rain    
T = Trace of Precipitation, MM = Missing Value Source: NWS Daily Summary

Daily Weather History Graph

Daily Weather History Graph

Search for Another Location

Airport or City:

Astronomy

Aug. 01, 2019 Rise Set
Actual Time 6:29 AM CDT 8:43 PM CDT
Civil Twilight 5:59 AM CDT 9:13 PM CDT
Nautical Twilight 5:22 AM CDT 9:50 PM CDT
Astronomical Twilight 4:42 AM CDT 10:30 PM CDT
Moon 6:56 AM CDT (8/1) 9:31 PM CDT (8/1)
Length of Visible Light 15h 13m
Length of Day
14h 13m
New Moon, 1% of the Moon is Illuminated
Aug 1
New Moon
Aug 7
First Quarter
Aug 15
Full
Aug 23
Last Quarter
Aug 30
New

Hourly Weather History & Observations

Time (CDT) Temp. Heat Index Dew Point Humidity Pressure Visibility Wind Dir Wind Speed Gust Speed Precip Events Conditions
12:55 AM 75.0 °F - 66.0 °F 73% 29.94 in 10.0 mi East 9.2 mph - N/A   Clear
1:55 AM 72.0 °F - 64.9 °F 78% 29.95 in 10.0 mi ESE 10.4 mph 20.7 mph N/A   Clear
2:55 AM 71.1 °F - 64.9 °F 81% 29.97 in 10.0 mi East 10.4 mph - N/A   Clear
3:55 AM 71.1 °F - 66.0 °F 84% 29.96 in 10.0 mi ESE 15.0 mph 23.0 mph N/A   Clear
4:55 AM 70.0 °F - 66.9 °F 90% 29.96 in 10.0 mi East 12.7 mph - N/A   Clear
5:12 AM 70.0 °F - 66.9 °F 90% 30.01 in 10.0 mi ESE 11.5 mph 23.0 mph N/A   Scattered Clouds
5:24 AM 70.0 °F - 66.9 °F 90% 30.01 in 10.0 mi ESE 13.8 mph - N/A   Mostly Cloudy
5:53 AM 69.8 °F - 66.2 °F 88% 30.02 in 10.0 mi ESE 12.7 mph 20.7 mph N/A   Scattered Clouds
5:55 AM 70.0 °F - 66.9 °F 90% 29.97 in 10.0 mi ESE 11.5 mph 20.7 mph N/A   Scattered Clouds
6:02 AM 70.0 °F - 66.9 °F 90% 30.02 in 10.0 mi ESE 12.7 mph - N/A   Scattered Clouds
6:55 AM 71.1 °F - 66.0 °F 84% 29.99 in 10.0 mi ESE 15.0 mph 21.9 mph N/A   Partly Cloudy
7:55 AM 72.0 °F - 66.9 °F 84% 30.01 in 10.0 mi East 13.8 mph - N/A   Clear
8:55 AM 75.9 °F - 66.0 °F 71% 30.00 in 10.0 mi SE 16.1 mph 28.8 mph N/A   Clear
9:55 AM 79.0 °F - 66.0 °F 64% 30.01 in 10.0 mi SE 23.0 mph 34.5 mph N/A   Clear
10:55 AM 82.9 °F 85.8 °F 68.0 °F 60% 30.02 in 10.0 mi SSE 23.0 mph 31.1 mph N/A   Clear
11:55 AM 84.0 °F 87.0 °F 68.0 °F 58% 30.01 in 10.0 mi SE 18.4 mph 31.1 mph N/A   Partly Cloudy
12:55 PM 86.0 °F 90.1 °F 69.1 °F 57% 30.00 in 10.0 mi SE 16.1 mph 27.6 mph N/A   Clear
1:55 PM 84.9 °F 88.8 °F 69.1 °F 59% 30.00 in 10.0 mi SE 11.5 mph 25.3 mph N/A   Clear
2:55 PM 84.9 °F 88.8 °F 69.1 °F 59% 29.99 in 10.0 mi SSE 13.8 mph 21.9 mph N/A   Clear
3:55 PM 84.9 °F 90.1 °F 71.1 °F 63% 30.00 in 10.0 mi SE 6.9 mph - N/A   Mostly Cloudy
4:55 PM 84.0 °F 89.0 °F 71.1 °F 65% 29.98 in 10.0 mi ESE 6.9 mph - 0.00 in Rain Light Rain
5:55 PM 82.0 °F 86.3 °F 71.1 °F 69% 29.97 in 10.0 mi East 12.7 mph 24.2 mph 0.00 in Rain Light Rain
6:55 PM 82.0 °F 86.3 °F 71.1 °F 69% 29.96 in 10.0 mi East 10.4 mph - 0.00 in   Clear
7:55 PM 80.1 °F 83.2 °F 70.0 °F 71% 29.98 in 10.0 mi East 10.4 mph - N/A   Clear
8:55 PM 78.1 °F - 69.1 °F 74% 30.00 in 10.0 mi East 9.2 mph 20.7 mph N/A   Clear
9:55 PM 77.0 °F - 70.0 °F 79% 30.01 in 10.0 mi East 10.4 mph 19.6 mph N/A   Partly Cloudy
11:33 PM 75.9 °F - 70.0 °F 82% 30.05 in 10.0 mi ESE 10.4 mph - N/A   Mostly Cloudy
11:55 PM 75.9 °F - 70.0 °F 82% 30.01 in 10.0 mi East 10.4 mph - N/A   Overcast